Location: Gensac
(43.2177°N, 1.1313°E)
Time: 10:02:16
(UTC+00:00)

IGS 5A - Pass Details

Date: 21 March 2026
Orbit: 551 x 554 km, 97.4° (Epoch: 8 January)

Event Time Altitude Azimuth Distance (km) Brightness Sun altitude
Rises 05:05:25 0° 21° (NNE) 2,734 7.3 -10.2°
Reaches altitude 10° 05:07:43 10° 31° (NNE) 1,835 6.6 -9.8°
Maximum altitude 05:11:21 34° 97° (E) 921 5.3 -9.2°
Drops below altitude 10° 05:14:57 10° 163° (SSE) 1,821 6.1 -8.5°
Sets 05:17:13 0° 173° (S) 2,710 6.9 -8.1°
